Ada, OK

6:48 AM CST on November 19, 2017 (GMT -0600)
Ada Municipal

Weather History for KADH - December, 2013

Change the Weather History Date:

Friday, December 20, 2013

  Actual Average Record
Temperature  
Mean Temperature 44 °F -  
Max Temperature 60 °F 51 °F 74 °F (1966)
Min Temperature 28 °F 31 °F 6 °F (1924)
Degree Days  
Heating Degree Days 21    
Moisture  
Dew Point 38 °F    
Average Humidity 96    
Maximum Humidity 100    
Minimum Humidity 81    
Precipitation  
Precipitation 0.08 in - - ()
Sea Level Pressure  
Sea Level Pressure 29.85 in    
Wind  
Wind Speed 11 mph (NNW)    
Max Wind Speed 18 mph    
Max Gust Speed 24 mph    
Visibility 8 miles    
Events Rain , Snow , Thunderstorm    
Averages and records for this station are not official NWS values.
T = Trace of Precipitation, MM = Missing Value Source: NWS Daily Summary

Daily Weather History Graph

Daily Weather History Graph

Search for Another Location

Airport or City:

Trip Planner

Search our weather history database for the weather conditions in past years. The results will help you decide how hot, cold, wet, or windy it might be!

Date:

Astronomy

Dec. 20, 2013 Rise Set
Actual Time 7:29 AM CST 5:19 PM CST
Civil Twilight 7:01 AM CST 5:47 PM CST
Nautical Twilight 6:30 AM CST 6:18 PM CST
Astronomical Twilight 5:59 AM CST 6:49 PM CST
Moon 8:34 PM CST (12/20) 9:30 AM CST (12/20)
Length of Visible Light 10h 45m
Length of Day
9h 49m
Waning Gibbous, 90% of the Moon is Illuminated
Dec 20
Waning Gibbous
Dec 25
Last Quarter
Jan 1
New
Jan 7
First Quarter
Jan 15
Full

Hourly Weather History & Observations

Time (CST) Temp. Windchill Dew Point Humidity Pressure Visibility Wind Dir Wind Speed Gust Speed Precip Events Conditions
12:15 AM 59.0 °F - 55.4 °F 88% 29.72 in 10.0 mi South 11.5 mph 18.4 mph N/A   Clear
12:35 AM 57.2 °F - 55.4 °F 94% 29.72 in 10.0 mi South 10.4 mph - N/A   Clear
12:55 AM 57.2 °F - 57.2 °F 100% 29.72 in 10.0 mi South 10.4 mph - N/A   Clear
1:15 AM 57.2 °F - 57.2 °F 100% 29.72 in 10.0 mi South 9.2 mph - N/A   Clear
1:35 AM 59.0 °F - 57.2 °F 94% 29.73 in 10.0 mi SSW 11.5 mph - N/A   Clear
1:55 AM 59.0 °F - 59.0 °F 100% 29.73 in 10.0 mi SSW 10.4 mph - N/A   Scattered Clouds
2:15 AM 59.0 °F - 59.0 °F 100% 29.74 in 10.0 mi SSW 13.8 mph 17.3 mph N/A   Mostly Cloudy
2:35 AM 60.8 °F - 59.0 °F 94% 29.74 in 10.0 mi SSW 16.1 mph 20.7 mph N/A   Mostly Cloudy
2:55 AM 60.8 °F - 59.0 °F 94% 29.74 in 10.0 mi SSW 17.3 mph - N/A   Mostly Cloudy
3:15 AM 60.8 °F - 59.0 °F 94% 29.74 in 10.0 mi SSW 16.1 mph 21.9 mph N/A   Overcast
3:35 AM 60.8 °F - 59.0 °F 94% 29.74 in 10.0 mi SSW 16.1 mph 20.7 mph N/A   Overcast
3:55 AM 60.8 °F - 60.8 °F 100% 29.75 in 10.0 mi SSW 18.4 mph 23.0 mph N/A   Overcast
4:15 AM 60.8 °F - 59.0 °F 94% 29.76 in 10.0 mi SSW 16.1 mph 21.9 mph N/A   Overcast
4:35 AM 60.8 °F - 59.0 °F 94% 29.74 in 10.0 mi SSW 16.1 mph 23.0 mph N/A   Mostly Cloudy
4:55 AM 60.8 °F - 59.0 °F 94% 29.77 in 10.0 mi SSW 11.5 mph 18.4 mph N/A   Scattered Clouds
5:15 AM 60.8 °F - 59.0 °F 94% 29.78 in 10.0 mi SSW 11.5 mph - N/A   Mostly Cloudy
5:35 AM 60.8 °F - 59.0 °F 94% 29.79 in 10.0 mi SW 11.5 mph 17.3 mph N/A   Scattered Clouds
5:55 AM 60.8 °F - 59.0 °F 94% 29.80 in 10.0 mi SW 12.7 mph 18.4 mph N/A   Scattered Clouds
6:15 AM 60.8 °F - 59.0 °F 94% 29.79 in 10.0 mi West 8.1 mph - N/A   Scattered Clouds
6:35 AM 46.4 °F 39.8 °F 44.6 °F 93% 29.82 in 10.0 mi NNW 16.1 mph 21.9 mph N/A   Mostly Cloudy
6:55 AM 41.0 °F 32.5 °F 35.6 °F 81% 29.83 in 10.0 mi NNW 17.3 mph 24.2 mph N/A   Overcast
7:15 AM 37.4 °F 29.3 °F 33.8 °F 87% 29.85 in 10.0 mi NNW 12.7 mph 21.9 mph N/A   Overcast
7:35 AM 37.4 °F 30.8 °F 32.0 °F 81% 29.87 in 10.0 mi NNW 9.2 mph - N/A   Overcast
7:55 AM 35.6 °F 28.0 °F 32.0 °F 87% 29.88 in 10.0 mi NW 10.4 mph 16.1 mph N/A   Overcast
8:15 AM 35.6 °F 27.5 °F 32.0 °F 87% 29.89 in 10.0 mi NNW 11.5 mph 18.4 mph N/A   Overcast
8:35 AM 33.8 °F 23.9 °F 32.0 °F 93% 29.90 in 7.0 mi NNW 15.0 mph 21.9 mph N/A   Overcast
8:55 AM 32.0 °F 22.5 °F 32.0 °F 100% 29.91 in 7.0 mi NNW 12.7 mph 18.4 mph N/A   Overcast
9:15 AM 32.0 °F 22.5 °F 32.0 °F 100% 29.92 in 7.0 mi NNW 12.7 mph - N/A   Overcast
9:35 AM 32.0 °F 23.6 °F 32.0 °F 100% 29.92 in 7.0 mi NNW 10.4 mph - N/A   Overcast
9:55 AM 32.0 °F 24.8 °F 32.0 °F 100% 29.93 in 7.0 mi NNW 8.1 mph - N/A   Overcast
10:15 AM 32.0 °F 24.8 °F 32.0 °F 100% 29.94 in 10.0 mi NNW 8.1 mph 16.1 mph N/A   Overcast
10:35 AM 32.0 °F 22.5 °F 32.0 °F 100% 29.94 in 10.0 mi NNW 12.7 mph 18.4 mph N/A   Overcast
10:55 AM 32.0 °F 23.6 °F 30.2 °F 93% 29.94 in 10.0 mi North 10.4 mph 19.6 mph N/A   Overcast
11:15 AM 32.0 °F 23.0 °F 30.2 °F 93% 29.94 in 10.0 mi North 11.5 mph - N/A   Overcast
11:35 AM 32.0 °F 22.5 °F 30.2 °F 93% 29.93 in 10.0 mi North 12.7 mph 16.1 mph N/A   Overcast
11:55 AM 32.0 °F 24.2 °F 28.4 °F 87% 29.93 in 10.0 mi NNW 9.2 mph - N/A   Overcast
12:15 PM 32.0 °F 22.1 °F 28.4 °F 87% 29.92 in 10.0 mi North 13.8 mph 19.6 mph N/A   Overcast
12:35 PM 30.2 °F 21.3 °F 28.4 °F 93% 29.92 in 7.0 mi North 10.4 mph - N/A   Overcast
12:55 PM 30.2 °F 22.6 °F 30.2 °F 100% 29.92 in 5.0 mi North 8.1 mph - N/A   Overcast
1:15 PM 30.2 °F 21.3 °F 28.4 °F 93% 29.91 in 10.0 mi North 10.4 mph - N/A   Overcast
1:35 PM 30.2 °F 21.9 °F 28.4 °F 93% 29.89 in 10.0 mi North 9.2 mph - N/A   Overcast
1:55 PM 30.2 °F 20.8 °F 28.4 °F 93% 29.89 in 10.0 mi North 11.5 mph - N/A   Overcast
2:15 PM 30.2 °F 20.2 °F 28.4 °F 93% 29.89 in 10.0 mi North 12.7 mph 16.1 mph N/A   Overcast
2:35 PM 30.2 °F 21.9 °F 28.4 °F 93% 29.89 in 10.0 mi North 9.2 mph - N/A   Overcast
2:55 PM 30.2 °F 22.6 °F 28.4 °F 93% 29.92 in 10.0 mi North 8.1 mph - N/A   Overcast
3:15 PM 30.2 °F 21.3 °F 28.4 °F 93% 29.91 in 7.0 mi North 10.4 mph - N/A   Light Freezing Rain
3:35 PM 30.2 °F 20.8 °F 28.4 °F 93% 29.91 in 7.0 mi North 11.5 mph - N/A   Light Freezing Rain
3:55 PM 30.2 °F 22.6 °F 28.4 °F 93% 29.92 in 7.0 mi North 8.1 mph 17.3 mph N/A Rain Light Freezing Rain
4:15 PM 30.2 °F 21.3 °F 28.4 °F 93% 29.90 in 4.0 mi North 10.4 mph 17.3 mph N/A Snow Light Snow
4:35 PM 30.2 °F 20.2 °F 30.2 °F 100% 29.89 in 5.0 mi North 12.7 mph 17.3 mph N/A Rain Light Freezing Rain
4:55 PM 30.2 °F 20.8 °F 30.2 °F 100% 29.89 in 3.0 mi North 11.5 mph 23.0 mph 0.01 in Snow Light Snow
5:15 PM 30.2 °F 22.6 °F 30.2 °F 100% 29.91 in 4.0 mi North 8.1 mph - 0.01 in Rain Light Freezing Rain
5:35 PM 30.2 °F 21.9 °F 30.2 °F 100% 29.89 in 4.0 mi NNE 9.2 mph - 0.01 in   Overcast
5:55 PM 30.2 °F 23.4 °F 30.2 °F 100% 29.88 in 5.0 mi NNE 6.9 mph - 0.02 in   Overcast
6:15 PM 30.2 °F 21.3 °F 30.2 °F 100% 29.87 in 7.0 mi NNE 10.4 mph 16.1 mph N/A   Overcast
6:35 PM 30.2 °F 22.6 °F 30.2 °F 100% 29.87 in 5.0 mi North 8.1 mph 18.4 mph N/A Snow Light Snow
6:55 PM 30.2 °F 23.4 °F 30.2 °F 100% 29.86 in 5.0 mi NNE 6.9 mph - 0.01 in   Overcast
7:15 PM 30.2 °F 21.3 °F 30.2 °F 100% 29.85 in 5.0 mi North 10.4 mph - N/A   Overcast
7:35 PM 30.2 °F 22.6 °F 30.2 °F 100% 29.86 in 5.0 mi North 8.1 mph - N/A   Overcast
7:55 PM 30.2 °F 22.6 °F 30.2 °F 100% 29.86 in 5.0 mi North 8.1 mph - N/A   Light Freezing Rain
8:15 PM 30.2 °F 21.9 °F 30.2 °F 100% 29.83 in 5.0 mi North 9.2 mph - N/A   Overcast
8:35 PM 30.2 °F 26.7 °F 30.2 °F 100% 29.85 in 5.0 mi NE 3.5 mph - N/A   Overcast
8:55 PM 30.2 °F 22.6 °F 30.2 °F 100% 29.83 in 5.0 mi North 8.1 mph - N/A   Overcast
9:15 PM 30.2 °F 23.4 °F 30.2 °F 100% 29.83 in 5.0 mi North 6.9 mph - N/A   Overcast
9:35 PM 30.2 °F 23.4 °F 30.2 °F 100% 29.84 in 5.0 mi NNW 6.9 mph - N/A   Overcast
9:55 PM 30.2 °F 22.6 °F 30.2 °F 100% 29.83 in 5.0 mi North 8.1 mph - N/A   Overcast
10:15 PM 28.4 °F 20.4 °F 28.4 °F 100% 29.82 in 5.0 mi NNW 8.1 mph - N/A   Overcast
10:35 PM 28.4 °F 19.7 °F 28.4 °F 100% 29.83 in 4.0 mi NW 9.2 mph - N/A   Overcast
10:55 PM 30.2 °F 21.9 °F 30.2 °F 100% 29.83 in 2.0 mi NNW 9.2 mph 16.1 mph 0.01 in Snow Light Snow
11:15 PM 30.2 °F 22.6 °F 30.2 °F 100% 29.85 in 4.0 mi NW 8.1 mph 16.1 mph 0.01 in Thunderstorm Overcast
11:35 PM 30.2 °F 22.6 °F 30.2 °F 100% 29.82 in 4.0 mi North 8.1 mph - 0.03 in Rain Light Freezing Rain
11:55 PM 30.2 °F 26.7 °F 30.2 °F 100% 29.82 in 7.0 mi North 3.5 mph - 0.03 in Rain , Thunderstorm Light Freezing Rain